Regional Weather Roundup
Issued by NWS

Home | Current Version | Previous Version | Graphics & Text | Print | Product List | Glossary On
Versions: 1 2 3 4 5 6 7 8 9 10 11 12 13 14 15 16 17 18 19 20 21 22 23 24 25 26 27 28 29 30 31 32 33 34 35 36 37 38 39 40 41 42 43 44 45 46 47 48 49 50
000
ASUS45 KBOU 050110
RWRCO

WEATHER ROUNDUP FOR COLORADO
NATIONAL WEATHER SERVICE DENVER/BOULDER CO
700 PM MDT SAT JUL 04 2015

NOTE: "FAIR" INDICATES FEW OR NO CLOUDS BELOW 12000 FEET WITH NO
SIGNIFICANT WEATHER AND/OR OBSTRUCTIONS TO VISIBILITY.

COZ001>005-013-030-031-050200-
...NORTHWEST COLORADO...

CITY           SKY/WX    TMP DP  RH WIND       PRES   REMARKS
CRAIG          PTSUNNY   70  54  56 SE7       30.09R
HAYDEN         PTSUNNY   70  48  46 W6        30.12F
MEEKER         CLOUDY    76  47  35 E8        30.11R
MOUNT WERNER   NOT AVBL
STEAMBOAT SPGS PTSUNNY   72  47  41 S5        30.15S
WALDEN         PTSUNNY   70  50  49 CALM      30.21S
$$

COZ006>008-011-050200-
...WEST CENTRAL VALLEYS...

CITY           SKY/WX    TMP DP  RH WIND       PRES   REMARKS
GRAND JUNCTION PTSUNNY   91  47  21 S12       29.91S
MONTROSE       CLOUDY    84  49  29 SE13      30.03F
EAGLE          PTSUNNY   77  48  36 W6        30.12S
RIFLE          TSTM      73  56  54 NW18G30   30.03R
DELTA          CLOUDY    87  51  29 SE7       29.97S
NUCLA          CLOUDY    79  46  31 SE12      30.08S
$$

COZ017>023-064>068-050200-
...SOUTHWEST COLORADO...

CITY           SKY/WX    TMP DP  RH WIND       PRES   REMARKS
DURANGO        LGT RAIN  63  57  81 S13G22    30.21R
CORTEZ         SUNNY     80  51  36 NE9       30.07R
PAGOSA SPRINGS CLOUDY    62  54  73 CALM      30.27R
TELLURIDE      CLOUDY    63  51  64 CALM      30.35S
WOLF CREEK PAS NOT AVBL
$$

COZ009-010-012-014-032>034-037-058>063-050200-
...CENTRAL COLORADO...

CITY           SKY/WX    TMP DP  RH WIND       PRES   REMARKS
ASPEN          CLOUDY    68  54  60 SW5       30.20F
BUENA VISTA    CLOUDY    69  48  47 SE7       30.24F
COPPER MTN     CLOUDY    61  37  41 E3G16     30.56S
BERTHOUD PASS  FAIR      48  37  66 MISG      30.61F
COTTONWOOD PAS NOT AVBL
GUNNISON       CLOUDY    72  45  37 S9        30.23R
KREMMLING      CLOUDY    75  37  25 NW6       30.17S
LEADVILLE      CLOUDY    63  46  54 S7        30.36F
MONARCH PASS   CLOUDY    52  41  66 E18       30.66S
SALIDA         CLOUDY    72  47  41 CALM      30.29F
SUNLIGHT       CLOUDY    63  43  48 CALM      30.48S THUNDER
WILKERSON PASS CLOUDY    50  43  76 E9        30.54F
$$

COZ069>075-050200-
...SAN LUIS VALLEY/SANGRE DE CRISTO MOUNTAINS...

CITY           SKY/WX    TMP DP  RH WIND       PRES   REMARKS
ALAMOSA        CLOUDY    73  47  39 NE13      30.20R
LA VETA PASS   LGT RAIN  52  39  62 MISG      30.45R
SAGUACHE       CLOUDY    70  52  52 W3        30.24R
$$

COZ035-036-038>040-050200-
...NORTHERN COLORADO FRONT RANGE...

CITY           SKY/WX    TMP DP  RH WIND       PRES   REMARKS
DENVER INTL AP PTSUNNY   83  47  28 SW15G21   29.97R
DMNS CITY PARK   N/A     77  49  36 SW13      29.99S
AURORA         PTSUNNY   78  50  37 S15       30.01S
FRONT RANGE AP CLOUDY    82  48  30 SW12      29.99S
ERIE MUNI ARPT CLOUDY    80  52  37 SW6       29.96S
BOULDER MUN AP CLOUDY    79  50  36 SW13G24   29.97S
CENTENNIAL     CLOUDY    74  53  48 S7        30.03F
BROOMFIELD     PTSUNNY   79  54  41 SW10      30.01F
FORT COLLINS   CLOUDY    81  50  34 NW9       29.95R
LONGMONT       CLOUDY    81  56  42 SW6       29.97R
$$

COZ041-046-047-076>085-087-088-050200-
...PIKES PEAK/PALMER DIVIDE AND SOUTHERN FOOTHILLS...

CITY           SKY/WX    TMP DP  RH WIND       PRES   REMARKS
COLO. SPRINGS  PTSUNNY   77  49  37 NW26G32   30.10R
A. F. ACADEMY  CLOUDY    68  52  56 NW13G21   30.13R
ELLICOTT       PTSUNNY  N/A N/A N/A W14       30.07R
FALCON         PTSUNNY   74  53  47 W5        30.16R
FORT CARSON    CLOUDY    76  49  38 W9        30.05R
LIMON          PTSUNNY   79  60  52 S5        29.98R
MONUMENT HILL  NOT AVBL
TRINIDAD       CLOUDY    76  53  44 W15       30.07R
$$

COZ042>045-048>051-090-091-050200-
...NORTHEAST COLORADO...

CITY           SKY/WX    TMP DP  RH WIND       PRES   REMARKS
GREELEY ARPT   CLOUDY    77  63  61 W9        29.92F
AKRON          PTSUNNY   82  59  45 SE13      29.90R
BURLINGTON     SUNNY     89  59  36 SE18      29.90S
WRAY           MOSUNNY   93  54  27 SE18      29.85R
STERLING       PTSUNNY   90  57  33 SE13G18     N/A
HOLYOKE        MOSUNNY   91  57  31 SE13      29.85S
FORT MORGAN    PTSUNNY   85  49  29 CALM      29.89F
$$

COZ086-089-092>099-050200-
...SOUTHEAST COLORADO...

CITY           SKY/WX    TMP DP  RH WIND       PRES   REMARKS
PUEBLO         PTSUNNY   86  49  27 W8        29.94R
LA JUNTA       MOSUNNY   96  49  20 NE3       29.86S
LAMAR          MOSUNNY   93  55  27 S21G28    29.81S
SPRINGFIELD      N/A     67  62  84 SW35G53   29.94R
$$



USA.gov is the U.S. government's official web portal to all federal, state and local government web resources and services.